❰ Current Conditions

NWS Regional Weather Roundup - New England Area

REGIONAL WEATHER ROUNDUP
NATIONAL WEATHER SERVICE BOSTON/NORTON MA
1200 PM EST TUE DEC 01 2020

NOTE:  "FAIR" INDICATES FEW OR NO CLOUDS BELOW 12,000 FEET WITH NO 
SIGNIFICANT WEATHER AND/OR OBSTRUCTIONS TO VISIBILITY.

MAZALL-011800-
EASTERN MASSACHUSETTS
  
CITY           SKY/WX    TMP DP  RH WIND       PRES   REMARKS
BOSTON         CLOUDY    60  55  83 S14       29.49F                  
BEVERLY        FOG       57  55  93 SE10      29.48F VSB 1/2          
LAWRENCE       CLOUDY    62  54  74 SW8       29.49F                  
BEDFORD        CLOUDY    62  55  77 S7        29.47F                  
BLUE HILL        N/A     59  53  80 S18G28    29.48F                  
NORWOOD        CLOUDY    63  54  72 S10       29.48F                  
MARSHFIELD     CLOUDY    64  54  68 S13G21    29.49F                  
PLYMOUTH       CLOUDY    60  56  86 SW13G20   29.51F                  
TAUNTON        CLOUDY    62  54  74 S13G18    29.51S                  
NEW BEDFORD    CLOUDY    61  56  83 SW21      29.51F                  
$$

MAZALL-011800-
CAPE COD AND THE ISLANDS
  
CITY           SKY/WX    TMP DP  RH WIND       PRES   REMARKS
FALMOUTH       PTSUNNY   59  57  94 S14G23    29.54S                  
HYANNIS        CLOUDY    55  54  96 S12       29.53F FOG              
CHATHAM        CLOUDY    55  53  93 S8        29.57F                  
PROVINCETOWN   CLOUDY    56  55  97 S15G24    29.54F                  
NANTUCKET      CLOUDY    57  54  89 S13       29.58S FOG              
MARTHAS VNYRD  CLOUDY    59  56  89 S16       29.55S                  
$$
 
MAZALL-011800-
CENTRAL AND WESTERN MASSACHUSETTS
  
CITY           SKY/WX    TMP DP  RH WIND       PRES   REMARKS
WORCESTER      CLOUDY    57  50  77 S16       29.47F                  
FITCHBURG      CLOUDY    62  53  72 SE12      29.46F                  
ORANGE         MOSUNNY   59  49  69 S17G23    29.45F                  
SPRINGFIELD    PTSUNNY   58  42  55 SW10G21   29.44F                  
WESTFIELD      PTSUNNY   58  42  55 S21G26    29.45F                  
NORTH ADAMS    MOSUNNY   56  38  50 SW13G23   29.44F                  
PITTSFIELD     PTSUNNY   51  36  56 S10G18    29.42F                  
$$
 
RIZALL-011800-
RHODE ISLAND
  
CITY           SKY/WX    TMP DP  RH WIND       PRES   REMARKS
PROVIDENCE     PTSUNNY   60  51  72 SW20G28   29.51S                  
NEWPORT        CLOUDY    56  50  80 SW10G18   29.52F                  
BLOCK ISLAND   PTSUNNY   56  50  80 W15       29.55S                  
SMITHFIELD     CLOUDY    59  54  83 SW10G20   29.49S                  
WESTERLY       PTSUNNY   56  46  69 SW14G21   29.53S                  
$$
 
CTZALL-011800-
CONNECTICUT
  
CITY           SKY/WX    TMP DP  RH WIND       PRES   REMARKS
BRADLEY INTL   PTSUNNY   58  37  45 SW16G26   29.47F                  
HARTFORD       MOSUNNY   58  36  43 SW10G21   29.48F                  
BRIDGEPORT     NOT AVBL                                               
DANBURY        PTSUNNY   52  35  52 SW12G21   29.50F                  
GROTON         MOSUNNY   57  46  66 SW20      29.53R                  
NEW HAVEN      PTSUNNY   56  43  61 SW15G29   29.52S                  
CHESTER        FAIR      55  43  62 SW10G21   29.52S                  
MERIDEN        PTSUNNY   56  36  47 S12G23    29.50F                  
WILLIMANTIC    PTSUNNY   58  41  53 SW17G25   29.49S                  
OXFORD         PTSUNNY   52  41  66 SW12G24   29.50F                  
$$

MEZ002-015-021-024-NHZ003-005-008-011-012-014-VTZ005-008-011800-
NORTHERN NEW ENGLAND
  
CITY           SKY/WX    TMP DP  RH WIND       PRES   REMARKS
PORTLAND ME    LGT RAIN  56  56 100 S13G23    29.50F FOG              
BANGOR ME      RAIN      61  58  90 S22G38    29.61F FOG              
CONCORD NH     CLOUDY    63  53  70 S10       29.46F                  
MANCHESTER NH  CLOUDY    62  53  72 S12       29.45F                  
NASHUA NH      CLOUDY    61  57  87 SE8       29.47F                  
PORTSMOUTH NH  FOG       55  55 100 SE8       29.47  VSB 1/8          
JAFFREY NH     PTSUNNY   58  48  69 S14G22    29.44F                  
KEENE NH       PTSUNNY   60  48  64 S16G22    29.43F                  
BURLINGTON VT  PTSUNNY   64  40  41 S17G24    29.36F                  
MT. WASHINGTON FOG       37  37 100 S46G60      N/A  VSB 1/16WCI  22  
$$

NYZ052-076-011800-
EASTERN NEW YORK
  
CITY           SKY/WX    TMP DP  RH WIND       PRES   REMARKS
ALBANY         PTSUNNY   51  42  71 S16G25    29.42F                  
NEW YORK CITY  PTSUNNY   54  37  52 SW16G25   29.53F                  
$$
 
ANZALL-011800-
MARINE OBSERVATIONS
  
STATION/POSITION TIME  TEMP    WIND        PRES    VSBY  WAVE
                       AIR SEA DIR/SP/G                  HT/PER
                 (UTC) (F)     (DEG/KT/KT) (MB)    (MI)  (FT/S)
BOSTON BUOY      1640   53 50  150/ 12/ 14  999.1F
BUZZARDS BAY     1600          200/ 20/ 22 1000.6F
NANTUCKET SOUND  1640      52  190/ 16/ 19   N/A
MASS BAY-STELLWA NOT AVBL
ISLE OF SHOALS   1600   53     140/ 20/ 21  998.3F
S OF BLOCK IS    1626      57                N/A          18/13
$$

......................KEY.........................
  SKY/WX - SKY CONDITION/PRESENT WEATHER
  TMP    - TEMPERATURE IN FAHRENHEIT
  DWPT   - DEWPOINT IN FAHRENHEIT
  RH     - RELATIVE HUMIDITY IN PERCENT
  WIND   - DIRECTION AND SPEED IN MPH
  PRES   - MEAN SEA LEVEL PRESSURE IN INCHES OF HG
  WCI    - WIND CHILL INDEX
  VSB    - VISIBILITY IN MILES
  HX     - HEAT INDEX
  TC     - TEMPERATURE IN CELSIUS
  VRB    - VARIABLE WIND DIRECTION